This is the latest recevied weather packets stored in our database for station/object KC5CAM-13. If no packets are shown the sender has not sent any weather packets the latest 10 day(s).
| Time | Temp. | Humidity | Pressure | Rain* | Wind** | Luminosity | Snow |
|---|---|---|---|---|---|---|---|
| 1777134048 | 26.11° C | 83% | 1008.2 hPa | 0 mm | - | 622 W/m² | - |
| 1777133743 | 26.11° C | 82% | 1008.4 hPa | 0 mm | - | 216 W/m² | - |
| 1777133439 | 26.11° C | 83% | 1008 hPa | 0 mm | - | 279 W/m² | - |
| 1777133133 | 26.11° C | 83% | 1008.2 hPa | 0 mm | - | 186 W/m² | - |
| 1777132829 | 26.11° C | 83% | 1008.3 hPa | 0 mm | - | 167 W/m² | - |
| 1777132526 | 26.11° C | 83% | 1008.1 hPa | 0 mm | - | 254 W/m² | - |
| 1777132223 | 25.56° C | 83% | 1008.1 hPa | 0 mm | - | 234 W/m² | - |
| 1777131918 | 26.11° C | 84% | 1008.1 hPa | 0 mm | - | 637 W/m² | - |
| 1777131616 | 25.56° C | 84% | 1007.8 hPa | 0 mm | - | 631 W/m² | - |
| 1777131315 | 25° C | 86% | 1008.1 hPa | 0 mm | - | 491 W/m² | - |
| 1777131010 | 25° C | 86% | 1008 hPa | 0 mm | - | 79 W/m² | - |
| 1777130707 | 25° C | 86% | 1007.9 hPa | 0 mm | - | 134 W/m² | - |
| 1777130403 | 25° C | 87% | 1008.1 hPa | 0 mm | - | 176 W/m² | - |
| 1777130099 | 25° C | 87% | 1008 hPa | 0 mm | - | 200 W/m² | - |
| 1777129795 | 25° C | 88% | 1007.7 hPa | 0 mm | - | 198 W/m² | - |
| 1777129490 | 25° C | 88% | 1007.9 hPa | 0 mm | - | 172 W/m² | - |
| 1777129189 | 25° C | 88% | 1007.8 hPa | 0 mm | - | 198 W/m² | - |
| 1777128885 | 25° C | 89% | 1007.7 hPa | 0 mm | - | 228 W/m² | - |
| 1777128582 | 25° C | 90% | 1007.9 hPa | 0 mm | - | 218 W/m² | - |
| 1777128279 | 24.44° C | 90% | 1007.8 hPa | 0 mm | - | 204 W/m² | - |
| 1777127976 | 23.89° C | 90% | 1007.8 hPa | 0 mm | - | 196 W/m² | - |
| 1777127674 | 23.33° C | 90% | 1008 hPa | 0 mm | - | 161 W/m² | - |
| 1777127371 | 22.78° C | 91% | 1008 hPa | 0 mm | - | 161 W/m² | - |
| 1777127067 | 22.22° C | 92% | 1008.1 hPa | 0 mm | - | 135 W/m² | - |
| 1777126763 | 21.67° C | 92% | 1008.3 hPa | 0 mm | - | 120 W/m² | - |
* Rain latest hour (hover to see other rain measurements)
** Current wind speed in m/s (hover to see current wind gust speed)